TimeEST,TemperatureF,Dew PointF,Humidity,Sea Level PressureIn,VisibilityMPH,Wind Direction,Wind SpeedMPH,Gust SpeedMPH,PrecipitationIn,Events,Conditions,WindDirDegrees,DateUTC
12:41 AM,30.2,30.2,100,30.29,1.8,Calm,Calm,-,N/A,,Clear,0,2012-12-04 05:41:00
12:53 AM,32.0,30.2,93,30.29,3.0,Calm,Calm,-,N/A,,Clear,0,2012-12-04 05:53:00
1:10 AM,30.2,28.4,93,30.29,1.8,Calm,Calm,-,N/A,,Clear,0,2012-12-04 06:10:00
1:24 AM,32.0,30.2,93,30.28,3.0,Calm,Calm,-,N/A,,Clear,0,2012-12-04 06:24:00
1:53 AM,30.9,30.0,96,30.28,5.0,Calm,Calm,-,N/A,,Clear,0,2012-12-04 06:53:00
2:39 AM,30.2,28.4,93,30.29,1.8,Calm,Calm,-,N/A,,Clear,0,2012-12-04 07:39:00
2:42 AM,30.2,28.4,93,30.29,1.0,Calm,Calm,-,N/A,,Mist,0,2012-12-04 07:42:00
2:53 AM,30.0,28.9,96,30.29,4.0,Calm,Calm,-,N/A,,Mostly Cloudy,0,2012-12-04 07:53:00
3:15 AM,30.2,30.2,100,30.28,1.8,Calm,Calm,-,N/A,,Overcast,0,2012-12-04 08:15:00
3:20 AM,30.2,30.2,100,30.29,0.2,Calm,Calm,-,N/A,Fog,Light Freezing Fog,0,2012-12-04 08:20:00
3:39 AM,32.0,30.2,93,30.29,0.2,Calm,Calm,-,N/A,Fog,Fog,0,2012-12-04 08:39:00
3:53 AM,30.9,28.9,92,30.29,0.2,Calm,Calm,-,N/A,Fog,Light Freezing Fog,0,2012-12-04 08:53:00
4:53 AM,32.0,30.9,96,30.29,0.2,Calm,Calm,-,N/A,Fog,Fog,0,2012-12-04 09:53:00
5:53 AM,32.0,32.0,100,30.31,0.2,Calm,Calm,-,N/A,Fog,Fog,0,2012-12-04 10:53:00
6:53 AM,33.1,33.1,100,30.32,0.2,Calm,Calm,-,N/A,Fog,Fog,0,2012-12-04 11:53:00
7:02 AM,33.8,33.8,100,30.31,0.2,Calm,Calm,-,N/A,Fog,Fog,0,2012-12-04 12:02:00
7:10 AM,33.8,32.0,93,30.32,0.2,Calm,Calm,-,N/A,Fog,Fog,0,2012-12-04 12:10:00
7:53 AM,36.0,36.0,100,30.33,0.2,WNW,4.6,-,N/A,Fog,Fog,290,2012-12-04 12:53:00
8:53 AM,42.1,41.0,96,30.31,0.5,Calm,Calm,-,N/A,,Overcast,0,2012-12-04 13:53:00
9:00 AM,44.6,42.8,93,30.31,1.0,Calm,Calm,-,N/A,,Overcast,0,2012-12-04 14:00:00
9:14 AM,46.4,44.6,93,30.31,3.0,SSE,4.6,-,N/A,,Overcast,150,2012-12-04 14:14:00
9:53 AM,48.9,48.0,97,30.31,5.0,SSE,5.8,-,N/A,,Overcast,150,2012-12-04 14:53:00
10:53 AM,53.1,48.9,86,30.30,6.0,SSW,5.8,-,N/A,,Overcast,210,2012-12-04 15:53:00
11:53 AM,54.0,50.0,86,30.26,8.0,South,9.2,-,0.00,,Overcast,190,2012-12-04 16:53:00
12:53 PM,55.0,48.9,80,30.24,10.0,South,10.4,-,N/A,,Overcast,190,2012-12-04 17:53:00
1:53 PM,55.0,48.9,80,30.22,10.0,SSW,12.7,-,N/A,,Overcast,210,2012-12-04 18:53:00
2:14 PM,55.4,50.0,82,30.21,8.0,SSW,11.5,-,N/A,,Overcast,210,2012-12-04 19:14:00
2:53 PM,54.0,51.1,90,30.21,6.0,South,9.2,-,0.00,Rain,Light Rain,190,2012-12-04 19:53:00
3:26 PM,53.6,51.8,94,30.20,6.0,South,8.1,-,0.00,Rain,Light Rain,180,2012-12-04 20:26:00
3:53 PM,54.0,50.0,86,30.20,6.0,South,9.2,-,0.00,,Overcast,180,2012-12-04 20:53:00
4:53 PM,52.0,48.9,89,30.19,7.0,South,5.8,-,N/A,,Scattered Clouds,180,2012-12-04 21:53:00
5:53 PM,52.0,48.0,86,30.17,8.0,SSW,5.8,-,N/A,,Scattered Clouds,200,2012-12-04 22:53:00
6:53 PM,54.0,50.0,86,30.16,9.0,South,9.2,-,N/A,,Mostly Cloudy,180,2012-12-04 23:53:00
7:53 PM,53.1,50.0,89,30.13,7.0,South,5.8,-,N/A,,Scattered Clouds,180,2012-12-05 00:53:00
8:53 PM,54.0,51.1,90,30.11,7.0,South,11.5,-,N/A,,Partly Cloudy,190,2012-12-05 01:53:00
9:53 PM,55.0,52.0,89,30.07,7.0,South,10.4,-,N/A,,Partly Cloudy,180,2012-12-05 02:53:00
10:53 PM,55.9,52.0,87,30.05,8.0,South,11.5,-,0.01,,Scattered Clouds,190,2012-12-05 03:53:00
11:53 PM,55.9,53.1,90,30.03,7.0,South,16.1,-,N/A,,Clear,190,2012-12-05 04:53:00